INTELSAT 36 (IS-36)

Last updated on Jan. 16, 2021, 6:28 a.m. UTC

1 41747U 16053A   21015.54104807 -.00000031  00000-0  00000-0 0  9991
2 41747   0.0109  35.6095 0001557 343.6766 359.1587  1.00270488 16124
UTC
Height (km)
Latitude
Longitude
Inclination
Orbital Period
UTC large
Height (km)
Speed (km/s)
/
Latitude / Longitude
Inclination (degrees)
Orbital Period (minutes)
Azimuth
Elevation
Range (km)
Doppler Factor
iOS Compass Heading
iOS Angle

Next 30 passes for location: Hong Kong

Rise time Rise Azimuth (degrees) Set time Set Azimuth (degrees) Duration Max altitude (degrees)

No matching passes for this satellites